Regional Weather Roundup
Issued by NWS

Home | Current Version | Previous Version | Text Only | Print | Product List | Glossary On
Versions: 1 2 3 4 5 6 7 8 9 10 11 12 13 14 15 16 17 18 19 20 21 22 23 24 25 26 27 28 29 30 31 32 33 34 35 36 37 38 39 40 41 42 43 44 45 46 47 48 49 50
000
ASUS43 KBIS 290631
RWRND
NORTH DAKOTA REGIONAL WEATHER ROUNDUP
NATIONAL WEATHER SERVICE EASTERN NORTH DAKOTA/GRAND FORKS ND
100 AM CDT MON MAY 29 2017

  NOTE: "FAIR" INDICATES FEW OR NO CLOUDS BELOW 12,000 FEET WITH NO
  SIGNIFICANT WEATHER AND/OR OBSTRUCTIONS TO VISIBILITY.

NDZ001>003-009>011-017-290700-
...NORTHWEST NORTH DAKOTA...

CITY           SKY/WX    TMP DP  RH WIND       PRES   REMARKS
WILLISTON      MOCLDY    55  39  54 N15       30.07S
6HR MIN TEMP:  49; 6HR MAX TEMP:  71; 6HR PCP: TRACE;

MINOT          MOCLDY    53  44  71 NW21G30   29.95S
MINOT AFB      FAIR      52  44  75 NW20      29.95R
6HR MIN TEMP:  52; 6HR MAX TEMP:  62; 6HR PCP: TRACE;

$$

NDZ018>021-031>035-040>046-290700-
...SOUTHWEST NORTH DAKOTA...

CITY           SKY/WX    TMP DP  RH WIND       PRES   REMARKS
BISMARCK       FAIR      53  42  66 NW9       29.97S
DICKINSON      FAIR      41  34  76 W7        30.04R
GARRISON         N/A     49  41  74 NW17      29.97S
HETTINGER      FAIR      34  31  88 NW3       30.07R
$$

NDZ004>008-012>016-024-026-027-054-290700-
...NORTHEAST NORTH DAKOTA...

CITY           SKY/WX    TMP DP  RH WIND       PRES   REMARKS
GRAND FORKS    CLOUDY    52  50  93 NW14      29.79S
GRAND FORKS AF CLOUDY    50  50 100 N12G20    29.80S
DEVILS LAKE    CLOUDY    52  45  77 NW12      29.86R
$$

NDZ022-023-025-028>030-036>039-047>053-290700-
...SOUTHEAST NORTH DAKOTA...

CITY           SKY/WX    TMP DP  RH WIND       PRES   REMARKS
JAMESTOWN      CLOUDY    52  47  83 NW10      29.86S
FARGO          CLOUDY    53  49  86 NW12      29.80S
WAHPETON       CLOUDY    54  45  71 NW15      29.81S
$$




USA.gov is the U.S. government's official web portal to all federal, state and local government web resources and services.